Location: Norton
(51.3000°N, 0.8167°E)
Time: 02:55:50
(UTC+00:00)

ERS-2 - Pass Details

Date: 03 March 2021
Orbit: 492 x 496 km, 98.6° (Epoch: 13 April)

Event Time Altitude Azimuth Distance (km) Brightness Sun altitude
Rises 18:21:50 0° 22° (NNE) 2,596 5.5 -7.2°
Reaches altitude 10° 18:24:04 10° 32° (NNE) 1,708 4.5 -7.5°
Maximum altitude 18:27:26 34° 98° (E) 846 2.8 -8.0°
Drops below altitude 10° 18:30:47 10° 165° (SSE) 1,695 4.7 -8.6°
Sets 18:32:59 0° 175° (S) 2,573 5.7 -8.9°
